Regional Weather Roundup
Issued by NWS

Home | Current Version | Previous Version | Graphics & Text | Print | Product List | Glossary On
Versions: 1 2 3 4 5 6 7 8 9 10 11 12 13 14 15 16 17 18 19 20 21 22 23 24 25 26 27 28 29 30 31 32 33 34 35 36 37 38 39 40 41 42 43 44 45 46 47 48 49 50
000
ASUS43 KLOT 220808
RWRIL

ILLINOIS REGIONAL WEATHER ROUNDUP
NATIONAL WEATHER SERVICE CHICAGO/ROMEOVILLE IL
200 AM CST MON JAN 22 2018

NOTE: "FAIR" INDICATES FEW OR NO CLOUDS BELOW 12,000 FEET WITH NO
SIGNIFICANT WEATHER AND/OR OBSTRUCTIONS TO VISIBILITY.

* THESE STATIONS ARE NOT UNDER NWS QUALITY CONTROL. THEY ALSO MAY NOT
  REPORT WEATHER SUCH AS PRECIPITATION OR FOG.

ILZ001-002-007-009-015-016-024-220900-
NORTHWEST ILLINOIS

CITY           SKY/WX    TMP DP  RH WIND       PRES   REMARKS
MOLINE         LGT RAIN  52  51  97 SE6       29.62F
STERLING*      LGT RAIN  44  44 100 E6          N/A  VSB 1/4
SAVANNA*       CLOUDY    40  40  99 NE10      29.68F FOG
$$

ILZ003-004-008-010-011-017-018-220900-
NORTH CENTRAL ILLINOIS

CITY           SKY/WX    TMP DP  RH WIND       PRES   REMARKS
ROCKFORD       DRZL/FOG  41  40  96 SE7       29.73F VSB 1/4
FREEPORT*      FOG       37  37  99 NE10      29.73F VSB 3/4 WCI  29
ROCHELLE*      LGT RAIN  46  46 100 SE14      29.70F VSB 1/2
DE KALB*       DRZL/FOG  45  44  99 SE9       29.74S VSB 1/4
PERU*          FOG       47  47  99 SE10      29.70F VSB 1/2
$$

ILZ005-006-012>014-019>023-220900-
NORTHEAST ILLINOIS

CITY           SKY/WX    TMP DP  RH WIND       PRES   REMARKS
CHICAGO-OHARE  FOG       46  45  96 SE9       29.76F VSB 1/8
CHICAGO-MIDWAY LGT RAIN  46  46 100 E6        29.77F VSB 1/8
AURORA         FOG       45  45 100 SE10      29.74F VSB 1/4
LANSING*       LGT RAIN  47  47 100 S6        29.78F
JOLIET*        FOG       47  47 100 SE6       29.76F VSB 1/2
WAUKEGAN       FOG       37  37 100 E6        29.78F VSB 1/4 WCI  32
DUPAGE AIRPORT FOG       47  47 100 SE10      29.73F VSB 1/4
KANKAKEE*      CLOUDY   N/A N/A N/A SE8       29.77F FOG
WHEELING       FOG       41  41 100 CALM      29.77F VSB 1/4
MORRIS*        FOG       47  46  99 SE8       29.74F VSB 1/2
ROMEOVILLE*    FOG       46  46 100 SE8       29.76F VSB 1/4
NORTHERLY ISL    N/A     36  35  96 CALM        N/A
$$

LMZ740>746-220900-
SOUTHERN LAKE MICHIGAN

STATION/POSITION SKY/WX   TEMP    WIND        PRES    VSBY  WAVE
                          AIR SEA DIR/SP/G                  HT/PER
                          (F)     (DEG/KT/KT) (MB)    (MI)  (FT/S)
HARRISON CRIB              42     130/ 15/ 16   N/A
BURNHAM HARBOR             37      CALM  /  3   N/A
CALUMET HARBOR             41      90/  5/  6 1007.9F
BURNS HARBOR               50     160/ 14/ 17 1009.5F
MICHIGAN CITY              47     140/ 10/ 12   N/A
$$

ILZ025>027-034>036-040-047-049-050-058-095>099-220900-
WEST-CENTRAL ILLINOIS

CITY           SKY/WX    TMP DP  RH WIND       PRES   REMARKS
QUINCY         LGT RAIN  51  51 100 SE7       29.60F
GALESBURG*     RAIN      52  52 100 SE7       29.64F
MACOMB*        LGT RAIN  52  51  99 S6        29.65F
JACKSONVILLE*  HVY RAIN  54  53  97 W6        29.64F
PITTSFIELD*    RAIN      54  54  99 NE5       29.62F VSB 3/4
$$

ILZ028>032-037-038-041>044-048-051>054-059>061-220900-
CENTRAL ILLINOIS

CITY           SKY/WX    TMP DP  RH WIND       PRES   REMARKS
PONTIAC        CLOUDY    49  49  99 S13       29.73F FOG
BLOOMINGTON    CLOUDY    50  50 100 S16       29.71F
DECATUR        FAIR      52  51  97 S16       29.71F
PEORIA         TSTM      53  53 100 S12G26    29.68F
LACON*         CLOUDY    51  51 100 SE7       29.68F FOG
LINCOLN*       LGT RAIN  53  53 100 S7        29.69F
SPRINGFIELD    LGT RAIN  55  53  93 SE17      29.66F
TAYLORVILLE    MOCLDY    53  50  90 SE13      29.68F
$$

ILZ033-039-045-046-055>057-062-063-220900-
EAST-CENTRAL ILLINOIS

CITY           SKY/WX    TMP DP  RH WIND       PRES   REMARKS
CHAMPAIGN      FAIR      50  49  96 S18       29.75F
DANVILLE*      CLOUDY    50  50 100 S16G25    29.76F
RANTOUL*       CLOUDY    49  49  99 S12       29.75F
MATTOON        MOCLDY    51  48  89 S15       29.75F
PARIS*         FAIR      50  47  90 S17       29.80F
$$

ILZ079-100>102-220900-
SOUTHWEST ILLINOIS

CITY           SKY/WX    TMP DP  RH WIND       PRES   REMARKS
ALTON          CLOUDY    54  52  93 SE15      29.63F
BELLEVILLE     CLOUDY    56  49  79 S16G23    29.64F
CAHOKIA*       MOCLDY    57  50  77 S17G29    29.62F
SPARTA*        CLOUDY    57  51  80 SE13G18   29.69F
$$

ILZ064>066-069>071-074>076-080>082-084>086-088>090-092>094-220900-
SOUTH-CENTRAL ILLINOIS

CITY           SKY/WX    TMP DP  RH WIND       PRES   REMARKS
CARBONDALE     FAIR      57  48  72 S16G24    29.73F
CAIRO*         FAIR      58  47  68 S16       29.77F
EFFINGHAM*     CLOUDY    52  50  93 SE12      29.77F
MARION         MOCLDY    57  47  70 SE15G23   29.76F
MT. VERNON     FAIR      57  48  72 SE18G25   29.74F
CENTRALIA*     CLOUDY    56  49  77 SE17G25   29.71F
SALEM*         FAIR      55  48  79 SE8       29.73F
METROPOLIS*    FAIR      59  46  62 S15G25    29.81F
$$

ILZ067-068-072-073-078-083-087-091-220900-
SOUTHEAST ILLINOIS

CITY           SKY/WX    TMP DP  RH WIND       PRES   REMARKS
LAWRENCEVILLE  LGT RAIN  49  44  83 S12       29.83F
FLORA*         FAIR      53  48  81 S14       29.77F
FAIRFIELD*     FAIR      53  48  83 SE9       29.77F
HARRISBURG*    FAIR      56  47  74 S13       29.80F
ROBINSON*      FAIR      50  45  84 S10       29.83F
CARMI*         FAIR      46  43  91 SE13      29.82F
$$

ABBREVIATIONS USED IN REMARKS
   TC - TEMPERATURE IN CELSIUS
  WCI - WIND CHILL INDEX
   HX - HEAT INDEX
  VSB - VISIBILITY
$$





USA.gov is the U.S. government's official web portal to all federal, state and local government web resources and services.